User: anonymous   Login
Location: Morlupo
(42.1333°N, 12.5000°E)
Time: 11:16:51
(UTC+00:00)
Language:

Terra - Orbit

View from above orbital plane
View from above orbital plane
View from above satellite
View from above satellite

Ground track
Ground track

The orbit data is extracted from the following two-line orbital elements,

1 25994U 99068A   20338.17590458  .00000118  00000-0  36168-4 0  9994
2 25994  98.1986  49.9799 0001127  93.6249 318.5386 14.57120897114883
Epoch (UTC): 03 December 2020 04:13:18
Eccentricity: 0.0001127
inclination: 98.1986°
perigee height: 701 km
apogee height: 703 km
right ascension of ascending node: 49.9799°
argument of perigee: 93.6249°
revolutions per day: 14.57120897
mean anomaly at epoch: 318.5386°
orbit number at epoch: 11488

The dashed part of the orbit path shows where the satellite is in the earth's shadow,  

DLR